Location: Buch
(50.1863°N, 11.0141°E)
Time: 18:45:14
(UTC+00:00)

USA 215 - Pass Details

Date: 18 January 2020
Orbit: 1101 x 1107 km, 123.0° (Epoch: 06 February)

Event Time Altitude Azimuth Distance (km) Brightness Sun altitude
Rises 03:55:05 0° 135° (SE) 3,913 6.7 -30.2°
Reaches altitude 10° 03:57:36 10° 139° (SE) 2,957 5.9 -29.8°
Enters shadow 04:03:58 61° 216° (SW) 1,234 3.2 -28.8°
